Regional Weather Roundup
Issued by NWS Sterling, VA

Home | Current Version | Previous Version | Graphics & Text | Print | Product List | Glossary On
Versions: 1 2 3 4 5 6 7 8 9 10 11 12 13 14 15 16 17 18 19 20 21 22 23 24 25 26 27 28 29 30 31 32 33 34 35 36 37 38 39 40 41 42 43 44 45 46 47 48 49 50
000
ASUS41 KLWX 051110
RWRLWX

REGIONAL WEATHER ROUNDUP
NATIONAL WEATHER SERVICE BALTIMORE MD/WASHINGTON DC
700 AM EDT SUN JUL 05 2015

Note: "FAIR" indicates few or no clouds below 12,000 feet
with no significant weather and/or obstructions to visibility.
 TC=TEMPERATURE CELSIUS

 * =Non NWS site. Station does not report precipitation (e.g. rain,
    snow, etc.), thunder, or fog.

DCZ001-MDZ009-015-VAZ040>042-051-053>054-051200-
WASHINGTON METRO

CITY           SKY/WX    TMP DP  RH WIND       PRES   REMARKS
WASHINGTON NAT CLOUDY    72  66  81 NE3       30.12R HAZE
DULLES         FOG       66  65  96 N3        30.12R VSB 1/2
ANDREWS AFB    MOSUNNY   66  66 100 N2        30.11R FOG
FT BELVOIR     FOG       68  66  94 CALM      30.11R VSB 1
QUANTICO       CLOUDY    71  68  90 N5        30.11R FOG
COLLEGE PARK*  PTSUNNY   66  66 100 CALM      30.11R
LEESBURG*      FOG       66  66 100 N3        30.14R VSB 1/4
MANASSAS*      CLOUDY    68  66  94 CALM      30.11  FOG
GAITHERSBURG*  CLOUDY    64  63  94 CALM      30.16R VSB<1/4

$$

MDZ006>007-011-014-051200-
BALTIMORE METRO

CITY           SKY/WX    TMP DP  RH WIND       PRES   REMARKS
BWI AIRPORT    PTSUNNY   67  65  93 CALM      30.10R FOG
MD SCIENCE CTR   N/A     70  64  81 MISG      30.11R
MARTIN STATE   PTSUNNY   66  66 100 CALM      30.12R FOG
ANNAPOLIS      MOSUNNY   70  66  87 NW5       30.10R FOG
FORT MEADE*      N/A     63  61  94 CALM      30.13R VSB 1

$$

MDZ012-015-019>023-051200-
MARYLAND EASTERN SHORE

CITY           SKY/WX    TMP DP  RH WIND       PRES   REMARKS
OCEAN CITY     CLOUDY    72  69  90 CALM      30.10R
SALISBURY      CLOUDY    70  69  97 E3        30.10R FOG
BAY BRIDGE AP*   N/A     70  68  94 CALM      30.10R
CAMBRIDGE*     CLOUDY    70  66  88 CALM      30.10R VSB 1
EASTON*        PTSUNNY   68  68 100 CALM        N/A  FOG

$$

MDZ017>025-051200-
SOUTHERN MARYLAND

CITY           SKY/WX    TMP DP  RH WIND       PRES   REMARKS
PATUXENT RIVER PTSUNNY   72  70  93 CALM      30.10R FOG
ST INIGOES     NOT AVBL
LEONARDTOWN*   MOSUNNY   68  66  94 CALM      30.12R

$$

MDZ003>005-051200-
NORTH CENTRAL MARYLAND

CITY           SKY/WX    TMP DP  RH WIND       PRES   REMARKS
FREDERICK*     CLOUDY    64  64 100 CALM      30.15R
HAGERSTOWN APT CLOUDY    65  63  93 NW3       30.13R FOG
WESTMINSTER*     N/A     63  61  94 CALM      30.13R FOG

$$

MDZ501>502-051200-
WESTERN MARYLAND

CITY           SKY/WX    TMP DP  RH WIND       PRES   REMARKS
OAKLAND*       PTSUNNY   59 N/A N/A CALM      30.20R
CUMBERLAND*      N/A     63  63 100 N3        30.18R

$$

VAZ025>031-051200-
SHENANDOAH VALLEY

CITY           SKY/WX    TMP DP  RH WIND       PRES   REMARKS
WINCHESTER*    CLOUDY    66  66 100 CALM      30.13R FOG
FRONT ROYAL*   CLOUDY    66  66 100 CALM      30.12R VSB 3/4
LURAY*         FOG       70  70 100 CALM      30.13R VSB 1/2
NEW MARKET*    CLOUDY    67  66  99 CALM      30.12R VSB 1
STAUNTON*      FOG       68  67  94 CALM      30.16R VSB 1/2
WAYNESBORO*    CLOUDY    64  64  99 CALM      30.15R

$$

WVZ021-048>050-054>055-051200-
EASTERN WEST VIRGINIA PANHANDLE

CITY           SKY/WX    TMP DP  RH WIND       PRES   REMARKS
MARTINSBURG    FOG       65  63  93 CALM      30.14R VSB 1/4
PETERSBURG*    CLOUDY    61  59  92 CALM      30.15R FOG

$$

VAZ036>039-050-051200-
CENTRAL FOOTHILLS

CITY           SKY/WX    TMP DP  RH WIND       PRES   REMARKS
CHARLOTTESVILL FOG       66  65  96 N3        30.11R VSB 1/4
CULPEPER*      FOG       66  66 100 CALM      30.12R VSB 3/4
ORANGE*        FOG       68  68 100 CALM      30.13R VSB<1/4
GORDONSVILLE*  FOG       66  66 100 CALM      30.11R VSB<1/4
WARRENTON*     FAIR      68  68 100 CALM      30.11R FOG

$$

VAZ055>057-051200-
NORTH AND CENTRAL PIEDMONT

CITY           SKY/WX    TMP DP  RH WIND       PRES   REMARKS
FREDERICKSBRG* PTSUNNY   72  72 100 CALM      30.09R FOG
STAFFORD*      FOG       69  68  97 CALM      30.15R VSB 3/4

$$

NCZ024-NYZ072-PAZ021-071-VAZ022-071-051200-
OTHER REGIONAL OBSERVATIONS

CITY           SKY/WX    TMP DP  RH WIND       PRES   REMARKS
NEW YORK CITY  MOSUNNY   70  59  68 MISG      30.11R
PHILADELPHIA   PTSUNNY   69  61  75 CALM      30.11R
PITTSBURGH     CLOUDY    59  55  87 CALM      30.14R
ROANOKE        CLOUDY    68  66  93 NW3       30.14R
RICHMOND       FOG       70  68  93 CALM      30.10R VSB 1/4
RALEIGH        MOCLDY    73  69  87 S3        30.11R

$$

ANZ530>537-051200-
MARINE OBSERVATIONS

STATION/POSITION TIME  TEMP    WIND        PRES
                       AIR SEA DIR/SP/G
                 (UTC) (F)     (DEG/KT/KT) (MB)
THOMAS PT LIGHT  1100   71 76   30/  7/  8 1020.0R
BALT KEY BRIDGE  1000   68      10/  8/  9 1018.5R
COVE POINT       1000   71      80/  4/  8 1018.8R
LEWISETTA        1000   72 79  360/  2/  3 1018.2R
SOLOMONS ISLAND  1000      79                N/A
PINEY POINT      1000           70/  2/  2   N/A

$$



USA.gov is the U.S. government's official web portal to all federal, state and local government web resources and services.